X  Close Clear throughout the day.
Conditions Temperature Feels Precipitation Wind Wind Direction UV index Pressure
11:00 partly-cloudy-day Partly Cloudy 38° 28° - 19-28 mph NNW NNW uv-2 30,00
12:00 clear-day Clear 40° 31° - 20-27 mph NNW NNW uv-2 29,98
1:00 clear-day Clear 43° 34° - 20-28 mph NNW NNW uv-2 29,97
2:00 clear-day Clear 44° 35° - 21-29 mph NNW NNW uv-2 29,96
3:00 clear-day Clear 43° 34° - 21-30 mph NNW NNW uv-1 29,98
4:00 clear-day Clear 41° 32° - 20-30 mph NNW NNW - 30,02
5:00 clear-day Clear 38° 28° - 19-31 mph NW NW - 30,08
6:00 clear-night Clear 36° 26° - 17-30 mph NW NW - 30,14
7:00 clear-night Clear 34° 23° - 17-32 mph NW NW - 30,18
8:00 clear-night Clear 31° 21° - 14-23 mph NNW NNW - 30,23
9:00 clear-night Clear 30° 20° - 12-20 mph NNW NNW - 30,26
10:00 clear-night Clear 28° 19° - 9-15 mph NW NW - 30,29
11:00 clear-night Clear 26° 18° - 7-13 mph NW NW - 30,31
12:00 clear-night Clear 25° 17° - 7-10 mph NW NW - 30,31
1:00 clear-night Clear 24° 16° - 6-11 mph NW NW - 30,34
2:00 clear-night Clear 23° 16° - 6-10 mph NW NW - 30,35
3:00 clear-night Clear 23° 16° - 5-9 mph NNW NNW - 30,36
4:00 clear-night Clear 22° 15° - 5-8 mph WNW WNW - 30,37
5:00 clear-night Clear 21° 15° - 5-7 mph WNW WNW - 30,38
6:00 clear-night Clear 20° 14° - 4-6 mph NW NW - 30,38
7:00 clear-night Clear 19° 14° - 4-5 mph WSW WSW - 30,39
8:00 clear-day Clear 20° - 4-5 mph West West - 30,37
9:00 clear-day Clear 23° - 4-5 mph WNW WNW uv-1 30,33
10:00 clear-day Clear 26° - 4-6 mph SSW SSW uv-2 30,27
11:00 clear-day Clear 30° - 4-7 mph SW SW uv-2 30,22
12:00 clear-day Clear 34° - 6-9 mph SW SW uv-3 30,16
1:00 clear-day Clear 38° 32° - 7-11 mph SSW SSW uv-3 30,09
2:00 clear-day Clear 40° 35° - 9-13 mph SSW SSW uv-2 30,03
3:00 clear-day Clear 40° 35° - 8-14 mph SSW SSW uv-1 30,00
4:00 clear-day Clear 39° 33° - 8-15 mph SSW SSW - 29,99
5:00 clear-day Clear 36° 31° - 7-15 mph SSW SSW - 29,99
6:00 clear-night Clear 34° 28° - 7-14 mph South South - 30,00
7:00 clear-night Clear 32° 26° - 7-11 mph South South - 30,02
8:00 clear-night Clear 30° 23° - 7-10 mph SW SW - 30,04
9:00 clear-night Clear 29° 22° - 7-10 mph SW SW - 30,08
10:00 clear-night Clear 28° 20° - 8-11 mph SW SW - 30,09
11:00 clear-night Clear 27° 18° - 8-13 mph SW SW - 30,10
12:00 clear-night Clear 26° 17° - 8-13 mph WSW WSW - 30,10
1:00 clear-night Clear 25° 17° - 7-13 mph WSW WSW - 30,10
2:00 clear-night Clear 25° 17° - 7-14 mph WSW WSW - 30,11
3:00 clear-night Clear 25° 17° - 7-14 mph SSW SSW - 30,13
4:00 clear-night Clear 24° 16° - 7-15 mph WNW WNW - 30,15
5:00 clear-night Clear 24° 16° - 6-14 mph West West - 30,18
6:00 clear-night Clear 23° 16° - 6-12 mph NW NW - 30,21
7:00 clear-night Clear 22° 16° - 5-9 mph SSW SSW - 30,21
8:00 clear-day Clear 23° 18° - 4-7 mph SW SW - 30,23
9:00 clear-day Clear 27° - 4-7 mph SSE SSE uv-1 30,23
10:00 clear-day Clear 31° - 5-8 mph NNW NNW uv-1 30,23
11:00 clear-day Clear 35° - 5-9 mph WNW WNW uv-2 30,20